User: anonymous   Login
Location: Unspecified
(0.0000°N, 0.0000°E)
Time: 07:56:46
(UTC+00:00)
Language:

SSETI-EXPRESS DEB - Orbit

View from above orbital plane
View from above orbital plane
View from above satellite
View from above satellite

Ground track
Ground track

The orbit data is extracted from the following two-line orbital elements,

1 28897U 05043H   24113.88576253  .00006645  00000-0  11622-2 0  9996
2 28897  98.1897 250.8923 0015816 157.7073 354.7307 14.68116435978820
Epoch (UTC): 22 April 2024 21:15:29
Eccentricity: 0.0015816
inclination: 98.1897°
perigee height: 656 km
apogee height: 678 km
right ascension of ascending node: 250.8923°
argument of perigee: 157.7073°
revolutions per day: 14.68116435
mean anomaly at epoch: 354.7307°
orbit number at epoch: 97882

The dashed part of the orbit path shows where the satellite is in the earth's shadow,  

DLR